User: anonymous   Login
Location: Unspecified
(0.0000°N, 0.0000°E)
Time: 22:47:57
(UTC+00:00)
Language:

SSETI-EXPRESS - Orbit

View from above orbital plane
View from above orbital plane
View from above satellite
View from above satellite

Ground track
Ground track

The orbit data is extracted from the following two-line orbital elements,

1 28894U 05043E   17113.88970018 +.00000145 +00000-0 +38126-4 0  9991
2 28894 097.8738 273.4987 0016400 333.8754 026.1619 14.61436223611936
Epoch (UTC): 23 April 2017 21:21:10
Eccentricity: 0.0016400
inclination: 97.8738°
perigee height: 677 km
apogee height: 700 km
right ascension of ascending node: 273.4987°
argument of perigee: 333.8754°
revolutions per day: 14.61436223
mean anomaly at epoch: 26.1619°
orbit number at epoch: 61193

The dashed part of the orbit path shows where the satellite is in the earth's shadow,  

DLR